Theta_e
292 288 287 286 289 290 289 289 288 283 286 284 283 282 282 284 284 284 286 287 286 289 288 290 289 289 291 292 294 293 289 288 289 291 292 293 293 293 294 294 294 294 295 298 297 296 296 296 297 298 300 302 302 303 304 305 306 306 305 304 305 303 301 301 300 301 303 302 301 301 302 300 298 298 298 297 298 300 301 301 302 304 303 301 300 301
289 289 287 290 288 287 288 285 285 285 284 286 283 287 285 284 286 285 290 287 285 290 285 284 286 288 290 292 293 292 290 291 292 292 293 293 294 294 294 294 295 295 295 295 294 294 294 295 296 298 299 301 301 302 304 304 305 306 305 305 304 302 302 302 304 302 304 305 306 305 300 297 296 296 297 296 295 296 297 298 299 301 300 299 300 297
287 286 290 289 286 285 285 285 285 289 286 284 288 284 286 285 284 286 286 286 286 289 288 285 287 291 292 293 295 293 293 294 294 294 296 296 296 295 294 294 295 295 295 295 294 294 293 294 295 297 299 301 303 303 303 304 305 304 305 306 304 303 303 302 303 303 303 299 299 299 296 296 293 293 294 293 293 293 294 295 296 297 297 296 295 296
286 283 289 287 287 287 285 284 285 285 285 283 283 285 285 282 286 284 284 286 288 288 286 284 286 289 291 293 294 295 294 295 294 294 295 295 295 296 296 296 296 295 295 295 295 293 292 293 295 296 298 300 302 302 303 303 304 305 305 305 304 303 302 302 302 299 297 295 294 294 294 293 293 291 291 291 291 292 292 292 294 294 294 293 294 294
286 289 288 286 287 288 286 285 286 286 286 284 285 283 283 285 284 286 284 285 285 287 285 287 288 289 290 291 293 291 287 289 293 293 292 294 294 295 296 295 295 296 296 296 294 293 292 292 294 295 298 300 301 302 302 302 303 305 305 305 302 302 302 302 298 295 294 293 292 291 291 291 291 291 291 291 290 290 291 291 292 291 292 292 292 292
288 288 286 287 286 284 284 285 285 287 284 282 283 288 288 286 286 285 285 287 285 282 283 288 284 280 283 283 285 289 288 293 291 292 294 295 295 294 293 295 296 295 296 296 296 294 293 293 294 295 297 299 301 302 303 303 303 304 304 304 303 301 301 297 295 294 294 293 292 292 294 294 293 291 290 293 293 291 291 293 289 289 290 290 290 290
288 288 289 288 287 285 286 283 283 287 284 284 285 286 289 286 286 285 286 287 281 281 286 284 284 281 283 290 292 289 290 293 293 292 294 295 296 295 295 296 296 295 295 294 294 293 293 293 293 294 296 298 300 303 303 302 303 304 304 303 302 301 300 296 294 295 295 295 297 299 301 302 299 298 295 295 295 296 292 290 289 288 288 289 289 288
287 287 285 285 285 285 285 285 286 288 285 282 284 283 286 286 286 285 286 286 283 282 284 285 284 281 283 289 291 287 287 290 291 293 294 295 296 296 296 296 296 296 295 295 294 293 293 293 293 294 295 298 300 303 303 302 302 303 303 302 302 301 298 296 294 294 295 295 297 298 300 300 301 301 298 294 292 290 289 289 288 288 287 287 287 287
288 286 286 286 285 284 286 285 285 289 286 283 285 284 285 286 284 283 285 283 283 283 284 283 284 285 280 285 286 286 289 290 291 293 294 295 295 296 296 296 296 295 295 294 294 293 292 293 293 294 295 297 300 302 302 302 302 302 302 301 301 299 297 296 295 295 295 297 297 298 299 297 296 293 291 290 289 288 288 288 287 287 286 286 286 286
285 287 288 289 287 286 285 284 285 290 287 286 284 284 284 283 283 282 281 285 282 280 283 282 285 280 283 283 286 285 287 289 291 293 294 295 295 295 295 294 293 292 291 291 292 293 293 293 293 294 295 297 299 302 302 302 301 302 302 300 299 299 297 295 295 295 295 296 296 297 296 296 291 289 287 288 287 287 288 287 287 286 286 286 285 285
287 289 289 288 287 287 285 284 285 286 286 286 285 287 285 282 281 280 280 280 277 274 283 284 284 284 280 283 287 289 289 289 290 290 291 291 292 293 292 292 292 291 290 290 290 290 291 292 292 293 295 297 299 300 301 301 301 301 300 300 299 298 297 296 294 295 295 295 296 296 295 294 290 288 287 287 286 286 287 286 286 285 285 285 285 285
288 288 289 287 288 286 288 287 285 284 285 287 286 283 285 284 279 278 272 277 275 276 280 280 284 284 280 281 284 290 288 286 289 292 293 293 293 294 293 290 289 288 289 288 288 289 290 291 291 292 294 296 298 299 300 299 300 300 299 299 297 297 296 294 295 295 295 295 296 296 295 292 290 288 288 287 286 286 286 286 285 285 284 284 284 285
284 286 285 288 289 290 286 288 286 284 288 286 285 287 280 275 271 272 272 275 273 278 278 279 283 282 283 288 286 289 290 292 290 292 293 294 294 296 292 290 289 288 287 288 288 289 289 290 290 291 293 295 297 298 299 299 299 299 299 298 297 296 296 294 294 294 295 295 295 295 294 293 290 289 288 288 287 287 287 286 285 284 284 284 284 284
282 282 285 287 288 289 291 287 284 283 287 286 288 282 276 272 271 271 269 262 269 276 278 280 280 280 283 286 292 293 295 295 293 292 293 293 295 296 294 291 290 289 287 288 288 289 289 290 291 292 293 295 297 298 299 299 298 298 297 297 297 296 295 294 293 294 294 294 295 295 294 292 290 289 289 289 288 287 288 287 285 285 285 284 284 284
275 279 283 288 286 289 292 292 291 287 286 288 286 288 284 277 272 270 265 273 277 277 276 277 275 276 279 284 285 291 294 293 293 292 292 292 293 293 292 291 291 290 289 287 288 289 289 290 290 291 293 295 297 298 298 298 298 297 297 296 297 296 294 293 293 293 293 294 294 294 293 292 290 290 289 289 289 288 288 287 286 286 286 285 285 284
282 282 280 287 286 291 291 290 289 287 287 285 284 284 279 283 277 277 272 268 267 271 274 272 280 280 285 285 288 288 288 289 289 288 288 290 292 292 292 293 293 291 290 289 288 289 289 289 290 291 292 294 296 297 298 298 298 297 297 297 296 295 293 292 292 293 293 293 293 292 291 291 289 289 288 289 288 288 289 288 287 286 285 285 285 284
279 277 282 286 287 290 290 287 290 288 284 284 286 284 286 284 282 274 272 273 272 270 277 272 279 283 283 288 293 294 288 289 289 289 289 290 290 289 291 292 291 291 289 288 289 289 289 288 289 291 292 293 295 296 297 298 297 297 297 296 296 295 293 291 292 292 293 292 291 291 290 290 289 289 288 287 287 287 287 286 287 286 285 285 284 284
281 277 283 284 286 287 286 286 286 285 287 285 281 285 285 284 283 281 276 270 268 273 276 272 279 282 280 282 283 287 289 291 291 293 293 291 289 290 293 293 292 291 290 289 289 288 288 289 290 290 291 293 295 296 297 297 297 297 297 296 295 294 293 291 291 291 292 291 290 290 289 289 289 288 288 287 286 286 285 285 285 284 283 283 284 284
285 280 281 282 283 286 286 289 289 287 287 285 282 285 287 280 279 279 274 274 270 267 272 274 277 278 282 284 285 287 289 292 293 294 292 292 293 294 295 294 291 287 287 288 288 288 287 288 289 290 291 292 293 295 296 297 296 296 296 296 295 294 293 292 291 291 291 291 290 290 289 289 288 288 287 287 286 285 284 284 284 283 283 283 283 283
287 281 279 284 284 286 287 287 284 285 288 287 288 287 285 284 277 276 280 273 276 269 266 275 272 282 283 284 286 291 290 291 292 290 290 292 293 293 293 293 290 288 288 288 288 288 288 288 289 289 290 290 292 293 294 295 295 295 295 295 295 295 294 292 290 290 289 290 290 289 288 288 288 288 287 286 285 284 284 284 283 283 282 283 283 283
285 283 277 281 285 285 283 286 286 287 285 284 285 282 285 280 282 280 279 277 277 268 266 268 277 283 286 286 287 291 292 292 290 292 292 292 292 291 292 292 289 288 288 288 287 287 287 287 288 288 289 290 290 292 293 294 294 295 294 294 294 294 293 291 291 290 290 289 289 288 287 287 286 286 286 285 284 283 283 283 283 283 282 282 282 282
282 281 281 281 281 282 284 286 287 288 291 289 288 286 288 283 279 276 278 279 270 275 276 268 278 285 288 286 292 291 292 292 292 294 294 290 290 290 290 289 288 289 288 288 287 287 287 287 287 287 288 288 289 290 291 292 293 293 293 293 293 293 292 291 290 290 289 288 288 287 287 286 286 286 285 284 283 283 283 282 282 282 281 281 282 282
289 283 281 278 282 285 286 286 284 284 286 285 286 287 288 288 286 279 277 275 272 278 275 275 271 283 289 287 290 291 289 288 288 288 290 291 290 289 288 287 288 288 288 288 287 286 286 286 287 287 287 288 289 290 290 291 292 292 292 292 292 292 291 291 290 290 289 287 287 287 286 286 285 285 284 283 283 283 282 282 281 281 281 281 281 281
293 288 284 285 285 282 285 283 283 284 287 287 286 282 283 286 284 281 278 279 282 274 275 274 271 284 288 286 284 284 284 284 284 285 291 291 290 289 288 288 289 287 287 286 285 285 286 286 286 286 287 287 288 289 289 291 291 292 291 291 291 291 290 289 289 288 288 287 287 286 285 285 284 283 283 283 283 282 282 281 280 281 281 281 281 280
287 286 287 283 279 280 282 284 286 285 285 281 283 283 286 286 287 281 280 277 278 279 282 280 277 284 289 284 283 284 286 286 287 286 285 288 291 290 288 288 287 286 285 285 285 286 285 285 285 286 287 287 288 288 289 290 290 291 291 291 291 291 290 289 288 287 287 286 286 285 285 284 284 283 283 283 282 282 281 280 280 280 280 280 280 280
290 288 287 281 279 277 276 277 279 281 283 282 281 281 286 287 284 284 283 279 280 282 281 280 282 289 287 286 290 288 286 288 288 286 284 286 290 291 289 288 286 285 285 285 285 284 285 286 286 286 286 287 288 288 289 289 290 290 290 290 291 290 289 288 287 287 286 286 286 285 284 284 283 283 283 283 282 281 281 280 280 280 280 280 280 279
286 288 289 287 285 283 284 285 286 285 281 283 283 285 285 286 288 288 286 284 282 286 282 283 287 288 288 288 288 290 286 288 290 290 290 290 290 289 288 287 287 286 286 285 285 285 285 285 285 286 286 287 287 288 288 289 289 289 290 289 289 290 289 288 287 287 286 286 286 285 284 284 283 283 283 282 282 281 280 280 280 280 280 280 280 279
286 287 289 289 288 289 290 289 286 288 285 286 286 284 286 286 287 287 286 284 289 285 282 287 288 286 289 290 288 289 289 287 288 288 288 288 290 291 290 288 289 286 285 284 285 284 285 286 286 286 286 286 287 287 288 288 289 289 289 289 288 288 288 287 287 286 286 286 285 285 284 284 283 283 283 282 282 281 280 280 280 280 280 280 280 280
287 286 289 289 288 290 291 290 287 287 287 287 287 287 285 286 286 285 287 290 289 285 284 289 289 287 289 292 293 292 291 292 293 292 291 292 289 287 287 288 288 287 286 285 286 286 286 286 287 286 286 286 286 286 287 287 288 288 288 289 288 287 288 287 286 286 286 285 285 285 285 284 283 283 282 282 281 280 280 280 280 280 280 280 280 280
289 287 289 289 288 290 290 290 287 285 284 285 285 286 287 286 286 287 288 290 289 288 290 290 290 289 292 293 293 295 293 293 292 290 289 290 291 293 290 288 288 289 289 289 289 289 288 288 288 287 286 286 286 286 286 287 287 288 288 288 287 287 287 286 286 286 285 285 285 285 284 283 283 282 282 281 280 280 280 280 280 280 280 280 280 280
290 287 291 287 286 287 289 290 288 285 285 285 284 284 286 287 287 288 289 289 289 289 290 290 289 289 294 295 291 292 293 293 291 291 291 292 293 293 294 294 292 292 292 292 292 291 290 288 288 287 286 286 286 286 286 287 287 287 287 287 287 287 286 286 286 286 285 285 285 285 284 283 282 282 281 281 281 281 280 280 281 280 280 280 280 279
288 285 288 287 285 285 288 288 288 286 284 285 286 285 285 285 284 286 286 289 287 287 288 288 287 288 294 292 295 292 290 291 292 293 294 295 295 294 295 295 293 292 292 293 294 291 290 289 289 287 287 287 286 286 286 286 287 287 287 287 287 287 286 286 286 285 285 285 285 284 283 283 282 282 282 281 281 281 281 281 281 280 280 280 279 279
287 287 286 286 284 284 288 288 287 287 286 284 285 288 289 289 289 287 289 290 290 291 287 286 287 293 295 291 293 292 291 292 292 294 294 294 295 296 295 294 293 292 294 295 294 292 291 291 291 290 289 288 287 286 286 287 286 287 287 287 287 286 285 285 285 285 285 284 284 284 283 283 282 282 282 282 281 281 281 281 280 280 279 279 280 279
288 288 287 288 283 285 287 287 286 283 278 280 292 295 294 291 289 287 287 289 290 291 290 293 293 295 295 293 292 294 291 291 293 295 297 299 298 295 291 291 293 294 294 292 291 292 293 292 291 290 289 288 287 287 287 287 287 287 287 287 285 285 285 285 284 284 284 283 283 283 283 282 282 282 282 282 282 281 281 280 280 280 280 280 279 279
287 288 287 288 285 284 286 285 282 277 280 291 292 294 296 296 294 292 291 292 292 291 292 291 292 293 295 295 294 294 295 295 294 294 294 293 292 293 293 292 292 292 292 291 291 291 291 291 289 287 286 286 286 285 285 285 285 285 285 285 284 284 284 284 284 283 283 283 282 282 282 282 282 283 283 282 282 281 281 280 280 280 280 279 279 278
287 287 287 286 287 286 283 283 277 279 287 289 290 291 288 293 295 292 289 292 292 292 292 291 293 295 295 295 295 295 293 293 290 289 290 289 288 293 292 293 292 290 290 291 292 291 289 288 289 288 287 285 284 284 285 284 284 284 284 284 284 283 283 283 283 283 282 282 282 282 282 282 282 282 282 282 281 281 281 281 280 280 280 279 279 279
290 288 288 285 288 281 284 284 283 288 288 289 289 289 288 288 286 288 285 289 293 293 293 292 293 294 295 295 295 295 292 289 290 294 287 290 290 290 293 293 292 291 291 288 287 289 288 286 286 285 283 283 284 284 284 284 284 284 283 283 282 282 282 282 282 282 282 282 282 282 282 282 282 282 281 281 281 280 280 280 280 280 280 279 279 279
292 287 289 286 284 287 283 282 283 282 279 286 292 295 292 293 293 293 290 288 293 293 295 293 293 294 293 294 294 292 290 290 290 293 288 291 292 292 289 288 286 285 285 285 284 284 283 282 282 282 283 282 282 283 283 283 283 283 282 282 281 282 281 282 282 282 282 282 281 281 281 282 281 281 281 281 281 281 281 281 280 280 279 279 278 278
291 292 289 287 285 285 283 281 281 280 283 290 291 290 289 291 292 289 288 286 294 293 292 293 292 293 293 293 293 290 289 288 289 293 290 289 284 284 286 284 284 283 282 282 283 283 281 281 282 282 282 282 281 282 283 283 282 282 281 281 281 281 281 281 281 281 281 281 281 280 281 281 281 281 281 281 281 281 280 280 280 279 279 279 279 278
288 288 288 285 284 285 284 282 280 285 285 289 287 282 287 289 292 290 281 283 295 291 292 292 293 294 294 294 293 289 290 288 290 294 287 284 283 282 282 284 283 282 282 281 281 282 281 281 281 281 281 281 281 281 282 282 282 281 281 280 280 280 280 281 281 281 281 281 280 280 281 281 281 281 281 281 281 281 281 280 279 279 279 279 279 278
285 286 287 282 285 285 285 284 286 286 288 287 286 284 286 292 293 285 281 289 290 292 292 294 294 295 295 294 290 290 291 295 291 286 281 281 282 282 281 281 281 281 282 282 282 282 281 281 282 281 280 280 281 281 281 282 281 280 280 280 280 280 281 281 281 281 281 280 280 280 280 281 281 281 281 281 281 281 280 280 280 279 279 278 278 278
285 286 286 287 284 283 285 283 283 287 288 288 283 287 290 291 282 284 291 284 287 287 290 293 293 295 294 291 290 292 293 282 279 281 281 281 282 282 281 281 281 281 281 281 281 281 281 280 279 279 279 279 280 280 281 281 280 279 279 279 280 280 280 280 281 281 280 280 279 279 279 279 280 280 280 280 280 280 280 280 280 279 279 278 278 277
285 285 282 284 286 286 285 283 282 278 288 289 288 286 287 288 290 290 286 284 283 286 288 289 291 290 289 288 289 290 282 280 281 281 281 280 280 281 281 281 281 281 281 281 280 280 281 279 279 278 278 278 279 280 280 280 279 279 279 279 279 279 280 280 280 280 280 279 279 279 279 280 281 281 281 280 281 280 279 279 279 279 278 278 278 277
288 284 284 286 288 283 282 280 281 287 287 289 293 288 289 293 288 288 289 289 283 283 287 288 288 288 287 290 288 286 283 282 279 280 279 279 279 279 279 279 280 280 279 279 280 279 279 279 278 278 277 278 278 279 280 280 279 278 278 278 279 279 280 280 280 280 279 279 278 278 279 280 281 282 281 281 281 280 279 279 279 278 278 278 278 277
289 285 288 285 289 286 284 287 288 286 288 291 294 294 293 294 285 286 285 288 288 285 283 285 287 286 286 288 288 288 283 283 283 281 282 281 280 279 280 280 280 280 279 279 279 278 279 279 278 278 277 277 277 276 277 278 279 278 278 278 279 280 279 279 279 279 279 278 278 278 278 279 279 280 281 281 281 280 279 279 278 278 277 277 277 277
290 289 288 289 287 289 288 288 286 283 282 286 288 284 284 287 284 283 286 288 286 286 285 287 287 287 286 287 288 284 286 284 282 281 279 279 279 278 277 277 277 277 277 278 277 278 278 278 278 277 276 274 274 275 275 275 278 279 278 277 278 279 279 279 279 278 277 277 278 278 278 278 278 279 280 280 281 281 281 279 278 278 276 277 277 276
283 284 286 286 286 288 284 287 287 288 286 286 289 288 284 284 287 285 285 286 287 286 286 286 286 286 286 286 288 288 284 282 283 281 280 279 278 277 277 277 277 277 278 277 277 278 278 278 277 276 275 273 271 271 272 271 271 273 275 276 278 278 279 279 279 278 278 278 278 278 278 278 279 279 278 278 278 278 278 277 277 276 275 275 275 275
283 285 285 284 284 287 287 289 289 288 287 288 290 290 290 291 288 285 286 285 285 285 286 286 285 284 284 284 285 283 282 282 283 281 281 280 279 278 278 277 276 276 275 276 277 277 278 278 277 275 274 272 270 270 269 269 268 267 269 271 275 276 277 277 277 277 276 275 276 276 276 276 273 275 275 274 275 275 274 273 275 275 274 274 274 273
285 286 282 285 286 288 288 287 286 284 286 287 287 287 289 288 288 288 285 283 283 284 283 283 284 284 284 286 283 283 281 282 283 283 282 281 280 279 279 277 276 276 276 276 276 277 278 277 275 274 272 270 269 269 268 267 266 266 268 270 271 276 276 275 273 273 272 273 273 273 273 274 274 274 274 272 272 270 271 274 274 274 273 271 273 274
284 284 284 285 282 283 285 288 287 285 286 289 288 289 289 288 285 284 282 281 281 283 283 283 281 281 282 282 282 283 283 282 281 281 281 281 280 279 278 277 276 276 276 275 276 276 275 275 274 272 270 269 269 268 267 266 266 265 266 266 269 274 274 273 272 272 271 272 272 271 272 271 271 270 272 272 271 270 270 274 276 274 273 270 275 277
286 286 286 283 284 284 289 289 287 288 290 289 289 290 290 286 284 283 283 283 282 284 284 284 281 279 280 279 280 283 283 282 280 281 280 280 279 278 277 276 276 275 274 275 275 274 274 273 272 270 269 268 267 267 266 265 264 264 265 266 269 273 273 273 273 272 270 271 270 271 270 270 270 269 269 270 270 270 270 270 272 279 279 277 277 278
Wind_Speed
0 4 5 7 10 10 6 6 3 5 6 7 5 5 1 2 6 3 4 4 1 1 8 9 9 11 15 14 13 8 1 5 10 13 13 11 11 11 12 13 13 12 17 4 7 8 9 10 10 9 8 8 8 8 9 10 10 11 8 7 10 6 6 6 7 5 8 7 4 3 6 6 3 4 3 3 3 2 2 3 5 7 7 7 1 6
3 1 8 10 2 7 6 7 9 7 4 2 5 1 2 3 7 3 1 2 2 3 4 0 3 12 16 14 13 6 3 13 13 14 14 15 13 12 13 14 14 15 6 5 5 5 5 7 8 8 8 9 12 10 11 12 12 11 9 10 8 7 8 7 8 7 6 6 6 6 5 5 4 5 4 4 2 2 1 0 3 7 8 8 3 4
1 7 7 2 5 6 5 5 4 4 3 3 2 2 1 7 5 7 2 2 2 2 9 4 8 15 15 15 14 9 12 11 10 13 16 13 13 12 12 14 14 10 14 7 9 5 7 8 9 9 8 9 10 10 13 12 12 10 11 10 10 8 9 7 8 7 6 3 3 3 5 5 5 3 2 3 3 2 1 1 2 6 8 8 5 4
1 7 9 4 6 8 4 3 6 4 3 4 3 2 7 3 1 5 1 2 1 3 2 1 6 12 12 12 18 15 10 12 10 13 15 11 14 17 17 12 10 13 13 14 11 10 8 9 9 9 10 10 9 9 11 13 14 12 11 11 10 9 8 8 6 5 4 5 7 8 6 5 4 5 4 4 4 3 3 2 1 5 7 6 6 4
9 2 1 4 4 6 5 2 6 5 4 1 5 4 2 2 5 5 4 2 1 2 1 4 8 11 8 11 11 5 5 7 10 8 11 13 14 16 12 9 12 15 14 13 7 9 10 10 13 12 9 8 11 11 13 13 13 11 13 11 10 9 8 8 7 7 7 8 7 6 7 6 8 6 4 4 3 2 2 2 2 4 8 5 5 4
9 6 4 5 3 4 7 3 5 8 2 2 5 9 8 6 5 2 3 4 7 4 1 1 4 5 5 8 11 10 8 10 4 4 11 13 11 8 12 16 13 11 12 12 11 10 12 13 11 9 11 11 11 13 11 11 11 10 11 10 11 8 7 7 7 8 8 6 10 8 8 8 5 6 6 8 10 8 8 7 3 3 6 4 5 4
6 0 4 5 6 3 3 3 4 5 6 1 4 7 9 3 2 2 0 2 3 3 1 1 5 9 6 11 10 6 9 16 7 9 13 12 13 7 11 12 11 10 10 7 8 6 9 11 10 11 11 13 13 12 9 10 11 11 11 11 10 9 8 7 8 9 9 7 10 13 12 12 11 11 7 5 5 7 5 4 5 4 4 4 6 5
2 0 4 4 5 5 4 2 5 10 6 3 1 3 4 4 5 4 3 5 5 2 4 1 2 5 9 12 6 4 7 11 13 15 13 14 13 12 11 11 10 9 8 8 9 10 10 11 14 16 13 11 11 9 10 11 11 13 13 13 13 9 8 7 8 7 7 8 9 8 8 8 10 11 11 10 7 4 5 6 5 5 3 3 5 5
6 4 5 5 2 4 7 6 5 9 7 3 1 4 5 6 5 5 4 3 0 3 10 5 2 2 8 8 7 2 9 10 12 15 13 12 12 11 11 11 9 7 8 7 8 9 11 12 12 11 11 11 11 10 11 12 12 10 10 11 11 10 8 9 11 10 7 7 8 9 8 8 4 3 4 4 4 5 5 6 4 5 4 4 5 4
2 3 7 6 6 7 4 1 4 12 4 1 5 7 7 8 6 5 5 4 2 4 11 7 6 4 11 6 4 1 2 11 13 12 12 11 10 8 8 7 6 6 6 6 8 7 8 9 9 9 8 9 10 9 10 10 10 10 11 12 14 14 9 9 10 8 9 7 8 8 7 9 8 5 4 4 5 4 4 6 5 5 4 4 4 4
0 3 3 4 6 4 6 3 1 1 2 9 4 8 5 7 4 3 6 3 3 2 7 14 11 6 7 8 8 5 8 7 6 7 8 7 8 9 6 6 5 5 5 6 6 6 6 5 7 7 10 10 10 8 10 10 11 11 11 13 15 14 9 11 10 10 10 9 8 8 9 9 11 8 8 8 5 4 4 5 4 4 4 3 4 4
0 2 1 1 4 4 4 5 4 3 5 6 2 4 4 2 6 3 4 4 2 8 1 5 7 2 8 9 7 11 4 2 5 7 9 8 8 9 3 3 4 4 5 5 5 5 4 3 5 7 9 9 10 10 11 11 11 11 11 11 13 13 11 9 11 12 12 10 10 8 8 9 8 11 9 10 10 9 9 8 7 4 4 3 3 3
3 7 2 1 3 9 4 9 3 3 1 3 6 7 4 3 5 3 1 2 5 9 2 1 4 4 15 15 6 10 12 13 10 10 11 9 10 9 2 6 5 4 5 5 6 5 5 7 8 8 8 9 11 11 12 12 12 12 12 13 14 14 11 9 10 12 10 9 8 8 8 7 7 7 9 10 8 8 9 7 8 6 5 5 4 4
7 1 2 3 2 5 8 9 3 1 4 5 8 7 6 1 1 5 4 1 6 9 2 3 1 6 4 10 16 23 22 16 8 12 12 11 14 13 5 3 5 6 6 6 6 6 7 7 7 8 9 10 10 11 12 12 12 11 11 12 13 13 11 11 11 12 11 10 9 8 7 7 7 8 10 9 10 8 6 8 9 9 8 8 8 8
4 6 8 9 6 6 9 12 13 8 11 10 3 11 9 8 7 6 4 5 8 6 2 3 2 9 5 7 2 12 15 10 8 8 8 8 11 11 7 7 8 8 6 6 7 7 8 8 8 8 9 10 10 11 11 10 11 10 11 12 15 13 12 10 11 11 11 8 9 9 8 8 8 10 8 9 7 7 8 7 7 7 7 8 9 8
12 8 4 5 2 9 13 2 7 7 3 2 2 5 4 11 6 4 5 4 1 3 6 2 7 6 8 4 7 7 9 10 8 9 6 13 11 7 9 9 9 7 7 6 8 8 8 7 8 8 9 9 9 11 10 11 11 12 12 14 14 13 13 11 11 11 11 9 8 9 10 9 9 7 6 5 5 5 5 7 9 10 10 8 8 7
2 6 1 3 3 8 5 1 3 5 8 5 6 8 7 2 7 6 2 1 1 3 10 1 9 8 8 8 12 11 4 11 6 8 7 11 7 4 8 8 7 6 6 6 9 8 8 7 8 9 9 9 9 10 12 13 13 14 13 14 16 13 10 11 12 11 10 8 10 10 9 8 9 9 10 8 9 9 7 7 5 6 8 8 8 7
8 6 1 2 4 1 0 0 2 5 3 9 5 8 2 2 5 6 5 2 2 6 8 2 10 8 3 12 2 5 8 12 8 11 11 7 5 7 10 8 6 6 7 7 6 5 7 8 9 9 9 10 11 12 12 13 12 12 12 13 14 13 15 12 11 12 11 11 11 10 10 9 10 9 9 8 9 8 8 6 5 5 6 6 7 8
4 6 1 1 0 3 2 1 1 2 3 5 5 3 6 4 3 2 4 5 3 3 7 6 3 7 9 11 1 3 8 13 14 14 9 10 10 13 11 8 4 3 5 6 7 7 7 8 8 9 10 10 9 10 10 10 11 10 11 12 14 15 14 14 11 10 9 10 9 9 11 11 10 8 8 6 6 6 8 8 8 9 8 6 6 7
1 5 4 1 2 1 1 4 9 5 1 1 2 3 1 2 2 5 7 3 5 5 1 9 3 13 7 9 10 10 12 14 12 7 8 12 14 8 7 8 4 5 7 7 7 7 7 8 9 10 11 11 12 11 9 10 9 12 12 12 12 10 10 11 11 11 12 11 10 9 9 9 9 9 10 9 10 9 9 9 9 9 10 9 7 7
3 2 7 1 2 2 3 6 11 13 11 2 2 4 1 1 2 4 1 4 5 5 4 1 9 12 9 8 10 13 13 12 9 9 10 12 9 8 9 7 5 8 8 8 7 7 7 7 7 7 7 8 6 7 8 9 11 11 10 11 11 14 13 14 13 12 12 10 11 11 12 11 10 10 9 9 9 9 9 9 9 9 9 9 8 8
1 2 9 2 0 5 8 3 4 9 15 15 16 14 16 10 4 4 9 3 2 3 5 5 13 13 8 6 10 10 10 8 12 14 12 6 7 8 6 6 6 7 8 6 5 5 5 6 6 5 5 5 7 8 10 9 8 10 11 12 12 12 12 13 12 12 11 11 10 12 12 12 10 10 9 10 10 10 10 9 9 9 10 9 7 8
7 3 5 5 9 11 2 0 1 1 2 2 3 9 6 8 6 5 8 5 2 4 3 4 2 20 3 9 8 8 6 5 5 5 8 7 9 6 6 5 6 8 5 5 5 5 5 6 5 6 7 8 9 9 9 9 11 11 12 11 11 13 13 13 12 11 10 11 11 12 11 11 11 10 11 11 9 11 10 9 9 9 9 9 8 6
4 2 2 6 0 2 2 1 2 0 1 3 5 1 3 9 7 6 2 5 7 2 2 2 1 17 1 1 4 3 4 5 3 5 9 7 9 4 3 4 7 7 5 5 5 5 5 4 5 6 7 8 8 9 10 10 10 10 11 12 11 14 13 12 11 11 11 11 11 11 11 11 10 11 10 10 9 11 11 10 10 10 9 8 7 8
5 4 6 5 2 2 2 1 1 1 1 2 3 4 5 3 3 2 3 1 1 8 10 8 13 17 1 1 2 1 3 5 8 5 6 6 8 6 4 6 7 4 4 5 6 6 4 5 7 8 8 8 9 8 9 10 10 11 11 11 12 11 11 11 10 11 11 12 12 11 12 12 11 10 10 10 8 11 10 11 11 9 10 9 8 7
5 6 10 8 11 11 9 10 11 8 9 3 2 5 7 10 7 5 8 5 9 7 11 7 10 16 1 3 1 3 3 4 7 7 4 8 7 7 6 7 3 5 5 4 6 5 9 9 7 6 8 8 9 10 10 10 10 10 10 11 10 10 10 10 10 11 12 11 12 12 12 12 11 11 12 12 10 9 10 12 10 10 9 9 10 8
2 2 8 12 13 14 14 7 1 9 4 7 8 11 9 9 11 10 4 5 13 15 10 9 16 23 12 2 5 6 3 6 6 5 6 7 9 9 9 7 5 4 4 6 7 8 5 6 9 9 9 9 10 10 10 10 11 10 10 10 10 9 10 10 10 11 12 12 13 12 12 11 11 10 11 10 10 9 9 12 10 10 10 8 9 9
2 4 8 10 13 15 14 15 6 8 9 12 14 10 13 12 12 15 14 17 16 9 16 15 19 15 24 12 7 7 7 8 8 8 6 5 9 10 7 6 4 3 4 4 6 8 11 9 8 9 11 10 11 9 9 9 10 10 10 11 9 9 9 8 11 12 12 12 12 11 11 10 9 10 9 9 9 9 10 11 10 9 7 9 12 10
5 7 9 6 12 13 14 14 4 7 7 9 14 14 15 16 13 16 20 23 17 14 20 20 12 16 24 21 13 13 10 12 11 10 11 10 4 4 6 8 5 5 4 5 9 9 9 8 8 9 10 10 9 11 11 9 9 8 8 8 9 9 11 10 11 12 12 11 12 12 11 10 9 8 8 9 9 9 10 9 9 10 10 10 10 8
5 9 11 12 14 14 15 19 7 10 5 2 5 10 13 16 20 23 24 25 24 18 16 19 21 21 20 24 13 15 9 9 6 5 1 1 5 8 8 7 6 7 7 8 10 11 9 9 8 8 7 9 11 11 10 10 10 11 11 10 10 11 10 10 12 12 12 12 12 10 10 11 11 11 10 10 11 11 10 10 10 10 10 10 10 11
4 8 11 4 6 13 19 17 11 8 8 9 6 5 9 14 20 25 23 21 18 18 19 24 24 24 22 16 3 8 8 8 6 6 6 7 9 11 11 10 9 9 10 10 9 9 7 6 7 7 9 11 12 12 11 11 10 9 9 10 11 11 10 10 11 11 12 12 10 10 10 10 11 11 12 12 11 10 11 11 10 10 10 10 8 9
7 4 1 3 7 11 15 17 19 6 4 10 10 8 13 18 20 18 15 13 14 19 21 17 17 20 27 6 9 7 6 9 11 12 11 12 12 12 14 16 11 10 11 11 11 6 6 8 8 10 12 12 11 11 11 10 10 10 12 11 11 10 10 11 11 12 11 11 10 10 11 11 11 12 12 12 11 11 10 10 9 9 9 9 8 8
6 4 5 5 10 12 17 13 9 8 8 11 16 22 28 26 14 5 12 16 20 20 15 14 23 25 21 7 9 9 9 12 12 12 12 13 15 16 17 14 11 10 12 12 10 7 8 10 11 11 11 9 10 11 12 11 11 13 12 11 10 9 11 11 11 11 10 10 10 10 10 10 11 11 10 11 11 11 10 11 9 8 8 10 8 7
9 10 9 6 7 7 16 8 5 6 13 15 19 28 24 21 17 18 20 24 24 15 16 20 21 21 18 12 12 15 8 10 13 15 16 16 16 14 10 9 11 12 11 8 6 9 10 9 8 8 8 7 8 10 9 10 11 8 7 8 8 10 9 10 8 8 8 8 8 8 9 10 9 9 9 9 9 10 11 11 11 11 9 7 7 8
10 11 11 6 5 8 6 7 6 14 15 17 4 3 11 17 20 26 30 25 20 18 18 18 21 24 25 12 10 14 13 12 13 13 13 11 7 7 10 11 12 11 10 7 9 11 11 9 5 4 5 7 7 5 6 6 5 6 7 8 8 7 8 7 7 7 7 8 7 7 6 8 7 7 6 6 5 6 6 8 8 9 9 8 9 9
10 12 7 6 6 4 4 7 10 11 5 4 7 8 4 9 19 17 18 22 20 18 21 24 28 28 23 18 15 12 9 9 7 9 10 7 7 8 9 10 9 8 8 11 11 9 6 7 8 7 7 4 5 6 6 7 7 8 8 8 9 8 7 7 8 8 8 9 9 9 9 9 9 8 8 8 8 8 8 7 8 8 6 6 5 4
11 7 8 8 7 10 7 12 17 5 11 8 9 9 9 9 7 13 15 20 22 20 21 24 28 26 20 15 16 13 7 5 8 17 6 9 10 10 11 11 9 10 9 6 5 7 6 5 5 5 3 5 6 8 7 8 9 9 9 9 9 10 9 9 10 10 10 10 10 11 11 11 11 9 9 10 10 10 10 10 8 7 6 6 5 5
11 13 9 12 7 12 11 12 7 8 13 16 22 14 6 7 10 14 13 14 13 19 23 22 23 21 18 19 16 12 0 8 15 18 8 12 13 10 7 5 3 3 4 5 4 4 3 2 2 3 6 7 6 6 7 9 10 10 10 9 9 10 9 10 10 9 10 9 8 9 9 9 9 10 9 9 10 10 8 8 6 7 7 8 7 7
14 14 10 14 7 9 13 13 12 12 13 10 18 8 7 7 11 5 6 15 18 16 15 20 18 18 20 19 18 6 5 11 18 14 7 7 3 4 7 5 3 3 3 4 5 4 3 4 5 6 7 8 8 7 8 9 10 10 9 9 9 9 9 9 9 9 8 9 8 8 9 8 9 10 10 10 9 9 10 10 9 7 7 7 6 7
16 12 11 14 13 12 10 11 12 6 9 9 4 2 5 8 11 11 10 11 23 3 12 13 16 22 21 20 16 9 13 13 17 13 5 7 4 3 5 5 5 3 2 2 1 3 5 6 8 7 7 8 7 7 9 8 9 9 9 8 8 7 8 9 9 7 7 8 8 7 8 8 9 9 10 10 8 8 8 7 8 8 8 7 7 7
12 11 13 20 14 16 18 13 7 7 3 5 3 3 4 11 15 12 16 16 2 6 10 15 20 20 19 17 9 11 13 15 7 2 7 4 4 1 0 1 1 1 4 4 5 5 6 5 6 7 7 7 8 8 8 8 9 7 7 8 7 8 8 6 7 8 8 8 7 7 7 7 8 10 8 9 9 9 8 8 9 8 8 8 6 6
11 11 8 12 14 14 13 14 13 6 5 5 2 11 9 7 5 15 7 1 4 4 11 14 16 21 15 8 9 11 9 3 7 4 3 5 3 3 2 3 4 4 3 3 5 6 7 7 8 8 7 5 7 7 7 8 9 7 7 7 7 6 5 6 7 7 7 7 7 7 6 7 5 7 7 7 8 8 7 6 7 8 8 6 7 8
13 10 10 12 8 8 9 11 8 12 1 5 12 3 2 7 7 4 2 2 2 5 8 8 10 7 5 7 9 9 3 3 5 5 4 3 4 4 5 4 6 7 7 6 5 4 8 9 9 8 7 6 6 7 6 9 9 7 7 7 6 6 7 7 7 7 7 7 8 8 8 7 8 8 7 7 8 9 8 7 7 7 7 8 7 7
5 9 4 7 8 9 12 13 8 4 4 7 10 8 8 14 4 4 5 6 2 4 7 5 6 5 6 7 8 5 5 6 2 2 3 2 2 2 2 2 3 3 4 3 5 7 8 10 9 9 6 5 5 5 6 9 9 7 7 6 5 6 6 7 7 7 7 7 7 7 7 7 7 7 7 8 8 8 8 8 7 7 6 7 7 6
9 8 5 7 8 11 8 6 4 5 8 12 13 9 11 13 4 6 3 3 6 5 3 4 7 6 8 6 5 8 5 6 5 7 7 7 5 5 5 4 4 5 5 7 7 6 7 11 11 10 8 6 5 4 4 5 10 7 7 5 6 7 8 7 8 8 7 7 7 7 7 7 7 7 7 7 9 9 7 7 7 6 5 6 5 5
5 8 3 6 6 5 4 3 3 2 3 7 9 4 3 5 5 4 5 3 3 2 7 4 3 2 5 5 8 3 6 6 7 6 3 4 6 3 3 4 3 4 5 6 6 7 9 10 10 11 11 7 5 5 4 3 6 9 6 5 5 6 8 8 8 8 8 7 7 7 8 8 6 6 7 7 6 7 7 8 7 6 5 6 5 5
3 0 2 7 2 9 10 6 10 10 5 5 10 6 4 4 6 4 4 4 5 7 8 8 5 4 7 8 9 10 9 8 8 7 5 6 6 6 6 6 5 5 7 8 7 10 11 11 11 10 9 9 4 5 5 6 5 4 5 6 6 7 8 8 8 8 7 8 7 7 7 8 7 6 6 5 5 5 5 5 5 6 6 6 6 5
4 2 1 4 3 11 8 9 8 3 2 4 8 9 9 10 6 2 4 3 3 3 2 3 2 3 5 6 7 7 8 9 11 10 9 8 8 7 6 6 7 6 4 5 6 7 9 10 12 11 10 9 5 5 6 6 5 3 4 4 6 7 8 8 8 8 7 8 7 7 7 7 8 9 6 6 6 6 5 5 6 6 7 7 7 6
4 4 3 4 8 9 6 6 5 0 2 7 9 6 6 5 4 8 7 4 2 4 3 2 2 4 8 8 6 7 10 10 9 11 11 9 8 7 8 7 6 7 8 9 6 7 10 11 11 10 11 8 5 6 7 6 4 4 4 3 5 7 9 8 7 8 7 6 7 6 6 7 7 7 7 6 5 3 3 7 6 6 3 1 4 6
2 11 5 3 8 7 8 10 5 6 7 6 7 11 12 9 4 5 3 5 6 7 6 7 2 1 5 4 8 9 10 10 8 9 10 9 9 9 9 8 7 8 7 5 6 7 8 8 12 13 11 8 6 7 7 6 4 4 4 2 4 7 10 9 8 8 6 6 6 6 6 6 6 6 7 7 6 6 5 4 5 5 5 4 5 8
9 8 7 9 7 10 10 11 5 7 8 7 5 8 10 8 8 8 10 9 7 7 7 9 8 3 5 6 4 7 8 11 11 8 9 8 8 7 8 10 11 9 9 9 11 9 10 9 9 12 11 8 6 7 7 6 5 5 5 3 2 7 9 9 8 6 6 6 6 6 6 6 6 6 6 6 7 6 7 6 5 4 5 5 5 5
Wind_Direction
339 126 188 203 212 200 204 184 147 162 125 101 89 103 163 196 277 282 271 265 293 333 242 243 255 267 272 268 267 274 110 262 267 269 262 256 254 254 252 247 248 245 243 247 205 203 198 189 186 185 182 182 180 181 178 181 184 186 172 154 173 160 153 154 145 156 153 146 123 111 140 140 133 111 95 79 60 67 154 161 135 133 120 106 131 148
62 122 242 226 192 190 185 127 112 82 50 122 106 107 274 176 258 231 137 356 312 172 292 3 314 271 268 271 266 265 232 259 249 256 260 258 249 249 248 252 247 247 271 251 240 212 192 189 183 180 185 179 180 193 184 188 187 184 171 177 170 161 171 173 171 163 174 175 164 160 162 144 136 134 151 128 109 106 88 210 163 133 119 121 162 194
59 193 247 153 157 97 81 117 116 139 115 55 177 157 344 266 247 283 292 313 285 99 265 311 281 270 274 279 281 250 239 246 237 235 248 253 259 249 245 246 253 259 257 241 237 196 197 190 189 188 192 198 194 179 188 186 183 177 182 185 175 175 175 178 172 169 170 130 70 108 138 148 122 55 42 77 100 79 99 197 207 122 107 119 163 192
270 281 252 182 129 103 47 88 101 77 72 126 99 112 220 241 39 300 291 4 133 181 268 335 310 281 278 271 268 264 239 252 242 243 253 246 253 256 248 244 248 250 252 248 231 213 192 193 193 193 199 196 191 183 187 188 190 189 190 188 180 174 173 170 169 130 84 83 84 77 80 72 70 130 117 94 94 98 90 123 249 92 98 115 154 178
196 201 359 118 136 128 127 111 116 133 212 298 174 167 211 205 235 184 251 285 287 322 58 303 298 286 264 269 278 303 308 294 268 258 262 257 241 250 272 279 239 247 249 253 230 206 192 195 202 199 194 182 195 193 191 188 191 190 190 185 174 168 172 169 152 132 125 117 96 97 88 86 89 84 104 112 101 122 145 164 156 114 101 124 151 147
279 243 129 79 73 71 108 129 200 141 212 298 236 199 208 206 210 291 349 9 3 335 337 157 316 290 292 271 252 276 327 288 254 253 258 258 250 244 252 253 256 244 247 246 243 212 202 203 198 197 193 194 201 200 195 186 185 180 183 178 175 164 164 151 148 145 146 154 143 141 141 148 142 148 157 174 168 174 183 175 154 101 104 130 134 106
204 61 168 162 139 123 109 163 232 158 175 73 270 201 220 178 134 135 322 62 302 268 310 38 195 278 326 306 275 276 277 274 298 278 272 271 270 245 242 250 251 247 252 245 247 216 201 208 196 199 198 199 200 202 178 177 182 181 176 173 172 171 164 151 159 161 159 163 171 171 171 170 173 172 196 177 168 172 153 134 145 115 100 105 116 99
115 349 85 82 106 124 132 191 236 165 119 237 254 136 140 146 178 200 154 178 238 262 262 153 131 269 299 267 262 268 282 285 297 277 262 263 262 257 250 251 251 252 248 244 234 223 215 202 198 200 201 196 201 181 171 176 177 185 181 176 179 172 162 161 161 173 178 167 179 183 181 180 181 184 179 179 170 135 139 138 127 127 110 101 86 104
156 190 171 164 138 131 187 206 184 162 140 221 199 138 148 161 172 132 133 165 231 38 288 137 213 277 260 261 296 237 290 292 274 273 275 263 258 256 259 256 258 253 249 233 238 226 214 209 209 204 195 199 188 181 179 177 179 178 176 174 173 173 159 166 171 174 181 184 180 182 177 179 179 112 108 122 114 136 145 130 120 113 115 104 87 85
320 172 213 163 145 207 215 297 173 168 145 235 128 92 82 80 67 110 103 106 310 42 276 154 185 194 280 276 318 336 195 267 263 272 269 266 267 263 258 272 275 280 273 252 245 240 227 219 212 203 191 182 190 182 175 172 172 179 178 179 178 183 175 168 174 175 176 181 179 183 186 174 155 123 113 115 131 144 155 137 134 121 132 125 115 111
217 296 199 135 194 189 128 54 92 46 106 128 118 81 40 43 50 38 67 85 57 282 255 173 198 166 287 261 219 231 226 209 238 274 277 279 283 272 255 257 265 280 280 273 260 253 247 232 201 177 188 184 179 176 171 172 176 179 179 182 186 184 176 177 174 175 180 183 183 183 184 175 157 147 142 140 139 144 146 144 137 140 125 125 126 136
67 8 159 250 89 110 100 79 17 85 116 123 104 129 74 355 12 34 340 36 116 264 140 276 203 154 198 290 268 240 253 230 191 239 264 280 270 268 274 260 245 248 266 270 259 254 224 167 179 181 189 180 180 174 176 176 177 181 184 181 184 183 180 174 179 184 186 184 186 183 176 170 168 157 160 162 163 173 164 159 149 138 122 129 129 138
267 218 230 360 217 131 112 86 8 25 349 87 92 84 121 244 36 313 14 254 199 223 185 149 154 356 241 248 290 288 263 251 224 234 244 255 272 271 228 257 247 252 260 248 239 227 213 200 189 192 190 177 184 186 180 178 180 182 186 186 186 188 182 176 180 186 183 181 182 181 174 167 162 170 168 166 164 167 167 158 140 154 161 145 153 177
270 311 246 214 81 236 145 132 153 114 219 137 154 148 99 183 198 247 257 274 316 285 198 194 73 250 283 294 241 250 252 248 229 233 245 249 260 270 263 258 275 266 238 237 226 222 217 206 201 195 189 190 189 188 184 181 181 183 187 189 192 189 181 182 184 187 185 186 182 177 174 168 162 174 179 183 173 175 172 169 159 165 170 164 175 167
239 303 244 142 240 176 184 200 180 157 163 203 103 161 183 149 165 212 177 205 226 230 221 254 102 231 138 238 252 231 257 273 263 253 248 257 257 265 283 281 271 270 259 237 238 226 218 213 199 195 193 192 192 187 185 184 185 181 190 191 195 190 188 183 185 186 189 186 182 180 179 175 176 180 181 186 182 173 169 180 167 158 168 167 165 173
210 233 268 226 307 155 187 209 109 97 76 204 169 65 102 228 117 220 207 165 253 339 337 204 209 194 186 265 282 245 272 282 265 266 270 266 257 267 276 259 254 248 255 243 246 241 229 212 201 197 199 196 191 189 186 186 184 186 191 195 197 191 187 185 186 191 188 186 180 179 178 180 178 180 180 177 175 189 188 177 172 162 173 173 154 146
55 272 293 321 56 179 183 114 177 147 196 207 103 209 212 147 105 86 58 48 82 45 257 142 293 263 303 291 253 255 248 266 288 276 262 258 261 263 252 258 256 253 244 239 234 232 222 206 206 204 198 194 191 190 192 190 188 188 185 191 196 191 182 187 191 191 188 180 180 183 180 177 179 182 185 183 181 183 177 179 187 157 161 148 149 144
152 236 316 82 204 299 185 234 109 26 147 103 199 225 122 144 109 137 216 360 71 206 265 72 240 287 38 282 321 283 275 268 266 264 250 261 271 272 255 248 252 252 244 245 247 239 218 208 205 202 203 199 196 194 193 192 189 188 187 186 188 186 189 189 187 189 187 183 182 179 182 182 186 185 186 182 181 174 165 166 146 113 131 170 151 142
135 270 307 306 280 290 7 126 39 355 28 153 190 208 127 229 238 292 93 231 235 251 263 286 284 269 203 250 232 218 216 243 251 247 260 273 262 247 256 263 225 252 273 261 250 237 224 213 210 203 202 202 203 200 197 190 186 188 190 188 190 192 190 186 186 185 185 184 180 181 184 181 180 181 181 175 165 162 170 170 162 160 138 125 150 142
41 180 286 338 147 290 32 118 198 195 8 56 71 98 91 102 172 141 199 177 130 255 66 285 19 267 171 221 187 219 210 220 228 254 257 245 247 252 249 251 197 214 230 240 240 233 223 220 211 203 198 196 196 195 195 190 187 192 193 191 192 190 182 178 181 182 186 184 178 177 176 182 183 182 180 175 167 169 177 175 168 159 147 162 151 154
206 140 246 320 312 94 174 201 211 168 164 152 140 204 190 213 236 113 350 145 188 186 195 232 297 267 238 199 175 207 215 215 201 221 238 242 238 226 230 230 199 212 223 230 231 226 223 222 219 215 213 206 199 195 189 192 194 193 189 193 189 188 186 187 186 184 188 177 182 174 181 180 178 181 175 168 172 173 175 170 169 170 154 134 161 152
153 176 209 120 332 220 237 248 210 185 185 175 181 193 192 146 164 170 247 55 106 124 230 140 252 274 261 196 186 210 223 204 215 216 226 250 260 240 243 246 215 223 230 231 226 216 222 224 217 222 212 209 197 199 196 195 190 193 195 194 191 192 193 187 187 188 181 183 181 182 181 181 180 177 174 174 173 175 171 172 175 156 140 165 153 160
171 146 106 199 206 207 193 349 245 218 231 201 182 230 191 209 189 159 214 233 47 254 105 173 79 265 256 192 196 209 219 220 243 218 234 250 240 230 229 243 256 238 230 231 234 230 211 191 199 201 202 205 208 207 201 197 196 197 196 192 194 195 197 189 187 182 180 181 182 185 183 179 180 174 177 177 177 176 171 172 152 144 153 156 155 158
118 145 184 260 296 306 305 313 52 65 135 270 262 125 113 202 184 172 165 184 172 146 210 256 204 261 249 286 252 280 263 257 176 237 225 220 270 266 243 253 252 253 260 263 256 241 215 184 175 188 204 210 213 209 209 208 204 199 199 197 193 200 192 186 182 179 179 182 184 183 180 183 180 177 177 178 178 178 174 158 146 148 151 150 149 155
144 249 198 220 298 333 331 343 329 15 41 213 208 195 204 187 168 148 99 118 194 209 199 156 238 260 293 332 306 290 261 270 263 215 247 246 246 251 229 237 234 263 302 279 244 240 228 180 194 205 203 208 211 211 211 211 207 205 204 198 199 199 190 183 179 178 181 182 182 182 185 185 181 179 179 180 175 179 167 149 149 154 153 146 151 152
164 172 173 200 219 229 231 211 221 212 200 216 217 227 198 182 175 121 230 189 222 232 205 212 249 256 330 321 284 265 313 299 269 264 228 229 255 263 245 233 227 186 215 235 261 244 217 212 208 207 208 211 212 208 208 210 209 209 207 205 199 193 184 184 177 182 180 183 182 184 188 187 182 185 183 180 177 173 158 153 156 154 151 156 151 149
181 264 198 194 206 227 236 245 70 119 88 178 232 198 203 204 193 202 212 206 217 232 223 223 231 255 255 274 231 246 244 242 263 250 241 239 252 260 263 266 239 225 224 223 217 228 248 232 219 216 213 214 213 209 208 206 207 207 206 204 197 192 184 180 177 180 184 184 186 185 190 186 184 183 182 181 176 168 160 158 156 155 157 160 153 156
86 231 232 227 223 231 240 246 197 154 173 208 207 209 202 191 187 193 203 224 220 231 250 231 234 245 260 237 234 233 240 247 246 260 265 271 248 239 258 263 255 250 242 221 243 236 227 225 220 218 216 214 216 210 214 209 207 204 203 201 192 187 182 179 178 183 186 185 189 189 186 181 179 183 179 174 170 165 165 158 151 158 153 161 167 168
161 225 239 227 245 246 251 263 178 196 211 202 205 200 195 198 188 198 219 229 222 216 234 246 228 232 250 248 220 225 210 219 225 228 221 222 274 296 247 248 258 250 252 237 240 237 236 235 231 223 218 219 212 213 211 206 205 203 205 200 190 186 190 175 179 184 184 186 192 190 178 170 170 171 168 165 163 167 169 168 168 170 168 171 172 174
153 233 231 217 237 245 252 255 223 192 232 234 221 219 206 190 199 204 217 222 223 228 240 251 255 244 244 253 224 229 214 230 232 224 261 275 242 245 247 247 246 251 241 236 240 236 230 236 242 235 220 218 215 215 208 204 203 202 199 195 187 190 188 171 185 182 185 190 192 182 173 170 167 168 164 165 171 174 170 169 172 169 171 176 179 177
204 224 216 200 230 244 249 252 245 192 213 242 234 216 219 215 211 211 217 226 228 240 238 242 249 259 255 247 182 223 216 227 253 249 237 238 250 251 257 258 244 239 245 246 248 244 235 238 242 234 224 225 216 214 207 206 203 199 199 193 190 191 182 178 183 186 188 191 183 175 170 170 172 166 170 174 171 170 170 170 173 177 177 178 179 172
143 279 90 156 216 243 245 242 243 213 192 234 249 227 223 220 223 221 222 218 214 223 231 242 256 256 257 123 207 206 194 207 216 226 231 237 239 247 249 248 239 238 243 246 250 251 246 243 239 230 229 226 216 207 204 201 198 192 201 190 191 184 172 182 185 187 189 184 177 175 172 173 170 172 173 168 173 172 174 170 171 174 176 173 171 174
173 162 207 187 229 234 245 236 241 229 245 254 245 242 230 227 222 235 233 231 223 216 221 223 235 239 247 134 220 233 205 216 215 215 226 234 234 232 236 237 232 238 242 246 248 245 245 240 235 231 233 224 210 203 205 195 189 201 193 187 185 164 177 184 184 183 183 179 176 174 170 168 171 173 173 177 174 171 167 171 169 163 170 182 179 163
176 193 218 189 233 230 253 249 154 165 218 226 226 231 232 233 217 220 231 226 228 206 218 222 237 248 251 226 225 245 209 223 216 218 209 214 229 236 237 230 230 234 243 250 243 241 246 245 242 239 236 226 211 205 200 190 197 193 174 168 158 170 175 175 178 176 176 169 174 166 165 167 169 174 176 176 172 168 169 171 173 172 171 163 161 172
204 202 221 184 224 230 231 103 195 216 226 232 278 261 227 230 225 221 232 234 230 221 232 247 249 248 244 236 227 237 235 232 230 222 229 239 228 215 219 225 226 231 235 239 246 242 238 244 262 258 242 226 208 190 160 175 164 133 140 147 152 157 155 163 160 164 159 162 160 155 158 158 163 165 161 154 148 160 165 164 164 162 168 174 178 178
195 199 199 218 205 246 196 188 233 228 232 342 274 249 273 222 221 223 243 245 235 220 215 229 238 242 245 242 242 244 246 251 274 254 234 239 205 201 219 227 225 212 219 224 229 242 240 237 234 233 235 194 155 156 162 159 145 140 142 141 146 146 152 154 159 160 154 161 163 163 161 157 160 156 154 151 149 154 159 159 167 166 159 155 152 153
190 195 193 231 178 225 204 222 237 308 306 274 277 244 175 184 170 182 222 243 229 219 213 223 234 240 245 251 251 253 264 309 290 265 168 202 219 221 213 225 213 220 222 235 209 232 231 235 229 221 151 149 155 150 153 146 140 135 134 139 146 150 156 160 167 171 170 170 170 168 165 163 160 160 158 158 158 163 162 162 164 158 143 143 145 148
198 202 176 214 209 201 227 243 243 229 236 246 240 250 107 193 179 190 200 254 245 217 219 219 231 239 242 245 247 248 81 278 270 266 152 213 213 213 231 237 244 208 204 228 253 253 266 231 155 142 142 137 137 142 138 140 136 135 139 144 149 153 161 169 176 172 171 172 168 163 160 157 154 154 158 159 168 166 157 150 146 145 149 153 152 159
209 211 200 211 209 186 217 225 226 230 235 230 256 242 180 171 156 129 181 243 253 228 205 212 222 235 234 236 243 194 168 239 253 255 187 203 186 178 206 222 212 223 204 209 204 191 171 147 134 127 118 123 126 139 135 134 131 132 139 147 154 156 162 175 172 169 172 167 159 154 152 153 154 156 160 165 164 157 154 158 157 149 150 153 154 160
206 214 215 226 223 220 222 230 234 216 242 241 263 263 204 150 116 119 212 238 252 164 180 177 201 226 232 232 225 175 198 233 246 260 165 167 172 177 180 178 175 171 158 157 196 157 137 131 108 103 117 125 133 130 129 128 129 134 143 148 145 155 171 179 174 164 148 145 151 152 154 158 158 158 160 159 149 151 150 139 136 153 161 163 165 165
197 211 206 222 220 226 227 241 251 262 274 237 193 156 144 149 138 174 217 240 138 161 171 170 197 217 226 225 165 199 215 219 242 123 131 118 116 161 111 52 159 172 149 141 128 125 104 94 105 119 127 128 129 129 128 128 125 131 134 139 149 176 180 164 146 148 148 142 143 149 153 155 157 155 157 155 154 151 148 155 157 157 161 163 161 158
202 201 213 212 221 224 227 232 236 266 232 175 340 147 159 108 215 214 229 288 171 181 189 189 190 216 218 187 183 211 223 124 119 131 127 173 182 163 127 137 114 83 57 86 111 112 108 99 97 95 88 103 120 123 125 123 121 125 135 146 174 178 141 138 139 135 136 141 142 144 146 147 140 143 143 139 136 140 146 149 149 155 156 154 155 161
179 194 190 199 210 227 221 240 230 234 264 142 121 57 287 189 233 174 212 255 182 218 178 217 215 238 147 209 208 210 132 159 165 183 187 167 156 160 166 164 158 149 143 128 105 108 120 113 106 106 111 111 115 119 125 122 125 137 146 160 169 144 140 137 138 138 138 140 144 148 149 147 146 142 140 144 149 147 146 145 144 146 146 148 154 162
185 199 174 206 179 213 205 219 210 199 162 190 149 186 202 218 192 187 138 192 237 191 193 192 227 208 205 196 197 194 182 148 199 136 148 152 142 121 131 153 130 124 105 90 116 130 119 112 111 107 101 99 105 114 123 128 130 140 143 158 157 139 132 132 132 132 132 136 138 137 139 142 140 139 143 145 143 140 139 145 145 146 153 155 159 165
168 225 170 206 181 203 210 232 227 207 179 205 201 204 207 209 161 170 193 213 185 245 197 178 205 192 195 202 174 172 163 206 166 173 163 185 162 165 165 167 161 149 140 131 126 123 114 119 119 110 94 80 83 87 108 130 131 136 144 167 144 143 137 135 133 131 134 136 141 139 138 135 138 139 140 142 143 141 144 143 149 148 156 154 161 167
210 220 184 210 218 227 255 206 178 220 236 242 246 201 203 228 213 154 173 188 233 177 173 210 304 211 179 177 148 199 208 174 152 175 172 146 159 146 134 118 105 108 108 109 109 111 114 108 105 108 106 81 70 78 79 88 131 138 158 146 141 137 134 132 130 131 134 136 137 138 135 129 123 128 135 141 150 151 154 155 160 155 152 163 172 172
264 108 191 214 153 195 239 160 216 215 207 215 229 232 234 255 239 189 165 206 217 179 185 211 209 195 200 187 191 184 176 169 164 167 156 153 155 166 156 151 141 142 137 129 137 128 120 119 114 113 110 100 55 76 75 85 65 100 128 137 139 134 132 131 130 130 131 133 131 131 135 136 139 135 135 136 132 130 135 139 147 148 155 169 174 178
324 352 307 289 291 217 240 205 237 258 288 243 198 217 241 241 230 293 281 315 345 337 299 249 129 169 155 193 201 161 167 169 162 166 167 168 163 159 161 151 146 119 110 126 140 131 121 123 126 123 116 108 98 88 87 79 74 51 85 114 124 126 121 121 127 129 130 130 131 136 138 135 137 136 137 142 140 137 130 144 152 157 170 177 180 175
186 53 261 301 265 278 303 303 257 42 322 279 281 276 255 273 262 216 222 262 318 240 208 140 198 183 187 206 168 152 152 184 175 165 158 158 155 160 160 155 142 140 139 141 144 142 136 136 123 121 114 111 106 100 90 81 63 38 61 99 128 123 118 117 115 116 119 124 122 128 132 138 145 145 142 141 122 99 131 157 167 170 175 199 167 178
105 251 206 186 270 268 238 249 234 238 245 242 233 239 249 246 253 250 176 208 205 204 194 177 192 182 195 188 178 177 168 167 165 158 160 160 161 154 148 143 142 137 133 124 121 117 113 117 125 123 115 111 111 103 98 85 65 41 34 43 115 122 120 122 118 116 122 127 129 134 132 133 136 138 138 138 138 116 64 75 139 157 155 192 188 189
204 223 190 216 221 254 238 236 205 225 265 250 220 227 217 192 186 217 225 222 216 203 187 177 163 163 196 209 205 177 166 160 162 148 141 152 157 156 150 150 147 147 142 144 127 125 122 122 118 114 111 114 108 99 92 82 49 44 26 23 75 124 126 130 123 121 128 130 140 144 138 135 131 134 130 135 134 129 123 89 58 93 135 145 153 172